• In Netherlands
  • List of Countries
  • For 7 days
  • Water Temperature
  • Satellite Maps
  • Weather Map
  • Weather Widgets
  • user-avatar
    Login

    Hourly Weather Manama

    Today, 19 August, Saturday

    Time Temperature Precipitation Wind Pressure Humidity
    00:00 +37°C° 0 mm 1 mps 749 mmHg 44%
    01:00 +37°C° 0 mm 1 mps 749 mmHg 43%
    02:00 +38°C° 0 mm 2 mps 749 mmHg 43%
    03:00 +38°C° 0 mm 2 mps 749 mmHg 42%
    04:00 +38°C° 0 mm 3 mps 749 mmHg 42%
    05:00 +38°C° 0 mm 3 mps 749 mmHg 42%
    06:00 +38°C° 0 mm 4 mps 749 mmHg 42%
    07:00 +41°C° 0 mm 4 mps 750 mmHg 37%
    08:00 +43°C° 0 mm 4 mps 750 mmHg 32%
    09:00 +44°C° 0 mm 4 mps 750 mmHg 26%
    10:00 +45°C° 0 mm 3 mps 750 mmHg 24%
    11:00 +47°C° 0 mm 3 mps 750 mmHg 22%
    12:00 +48°C° 0 mm 3 mps 749 mmHg 20%
    13:00 +47°C° 0 mm 3 mps 749 mmHg 22%
    14:00 +48°C° 0 mm 4 mps 749 mmHg 24%
    15:00 +47°C° 0 mm 4 mps 748 mmHg 26%
    16:00 +45°C° 0 mm 4 mps 748 mmHg 30%
    17:00 +44°C° 0 mm 4 mps 748 mmHg 34%
    18:00 +42°C° 0 mm 3 mps 748 mmHg 39%
    19:00 +42°C° 0 mm 3 mps 749 mmHg 41%
    20:00 +40°C° 0 mm 2 mps 749 mmHg 43%
    21:00 +39°C° 0 mm 2 mps 749 mmHg 45%
    22:00 +39°C° 0 mm 2 mps 749 mmHg 46%
    23:00 +39°C° 0 mm 3 mps 749 mmHg 47%

    Tomorrow, 20 August, Sunday

    Time Temperature Precipitation Wind Pressure Humidity
    00:00 +38°C° 0 mm 3 mps 749 mmHg 47%
    01:00 +38°C° 0 mm 2 mps 749 mmHg 51%
    02:00 +37°C° 0 mm 2 mps 749 mmHg 55%
    03:00 +36°C° 0 mm 1 mps 749 mmHg 59%
    04:00 +36°C° 0 mm 1 mps 749 mmHg 57%
    05:00 +36°C° 0 mm 1 mps 749 mmHg 55%
    06:00 +37°C° 0 mm 1 mps 750 mmHg 53%
    07:00 +39°C° 0 mm 1 mps 750 mmHg 49%
    08:00 +40°C° 0 mm 1 mps 750 mmHg 44%
    09:00 +41°C° 0 mm 1 mps 750 mmHg 39%
    10:00 +42°C° 0 mm 2 mps 750 mmHg 38%
    11:00 +43°C° 0 mm 2 mps 750 mmHg 37%
    12:00 +44°C° 0 mm 3 mps 750 mmHg 36%
    13:00 +44°C° 0 mm 4 mps 749 mmHg 36%
    14:00 +45°C° 0 mm 4 mps 749 mmHg 37%
    15:00 +46°C° 0 mm 5 mps 749 mmHg 37%
    16:00 +45°C° 0 mm 5 mps 749 mmHg 39%
    17:00 +45°C° 0 mm 5 mps 749 mmHg 40%
    18:00 +43°C° 0 mm 5 mps 748 mmHg 42%
    19:00 +43°C° 0 mm 4 mps 749 mmHg 42%
    20:00 +42°C° 0 mm 4 mps 749 mmHg 43%
    21:00 +42°C° 0 mm 3 mps 749 mmHg 43%
    22:00 +42°C° 0 mm 3 mps 749 mmHg 43%
    23:00 +41°C° 0 mm 4 mps 749 mmHg 43%

    Day after tomorrow, 21 August, Monday

    Time Temperature Precipitation Wind Pressure Humidity
    00:00 +41°C° 0 mm 4 mps 749 mmHg 43%
    01:00 +40°C° 0 mm 4 mps 749 mmHg 49%
    02:00 +40°C° 0 mm 4 mps 749 mmHg 54%
    03:00 +38°C° 0 mm 4 mps 748 mmHg 60%
    04:00 +38°C° 0 mm 4 mps 749 mmHg 60%
    05:00 +38°C° 0 mm 4 mps 749 mmHg 60%
    06:00 +38°C° 0 mm 3 mps 749 mmHg 60%
    07:00 +39°C° 0 mm 3 mps 750 mmHg 55%
    08:00 +40°C° 0 mm 2 mps 750 mmHg 50%
    09:00 +41°C° 0 mm 1 mps 750 mmHg 45%
    10:00 +42°C° 0 mm 1 mps 750 mmHg 40%
    11:00 +43°C° 0 mm 2 mps 749 mmHg 35%
    12:00 +45°C° 0 mm 2 mps 749 mmHg 31%
    13:00 +45°C° 0 mm 3 mps 749 mmHg 29%
    14:00 +47°C° 0 mm 4 mps 748 mmHg 28%
    15:00 +47°C° 0 mm 5 mps 748 mmHg 27%
    16:00 +46°C° 0 mm 5 mps 748 mmHg 31%
    17:00 +45°C° 0 mm 5 mps 748 mmHg 35%
    18:00 +43°C° 0 mm 5 mps 748 mmHg 39%
    19:00 +42°C° 0 mm 5 mps 748 mmHg 40%
    20:00 +42°C° 0 mm 4 mps 748 mmHg 40%
    21:00 +42°C° 0 mm 4 mps 749 mmHg 41%
    22:00 +41°C° 0 mm 4 mps 748 mmHg 40%
    23:00 +41°C° 0 mm 4 mps 748 mmHg 40%

    22 August, Tuesday

    Time Temperature Precipitation Wind Pressure Humidity
    00:00 +41°C° 0 mm 4 mps 748 mmHg 40%
    01:00 +40°C° 0 mm 4 mps 748 mmHg 43%
    02:00 +38°C° 0 mm 4 mps 748 mmHg 46%
    03:00 +38°C° 0 mm 4 mps 747 mmHg 49%
    04:00 +38°C° 0 mm 3 mps 748 mmHg 49%
    05:00 +38°C° 0 mm 3 mps 748 mmHg 49%
    06:00 +38°C° 0 mm 2 mps 748 mmHg 49%
    07:00 +39°C° 0 mm 2 mps 749 mmHg 45%
    08:00 +40°C° 0 mm 2 mps 749 mmHg 40%
    09:00 +41°C° 0 mm 1 mps 749 mmHg 35%
    10:00 +42°C° 0 mm 1 mps 749 mmHg 32%
    11:00 +43°C° 0 mm 1 mps 749 mmHg 29%
    12:00 +44°C° 0 mm 1 mps 748 mmHg 26%
    13:00 +45°C° 0 mm 2 mps 748 mmHg 26%
    14:00 +45°C° 0 mm 3 mps 747 mmHg 25%
    15:00 +45°C° 0 mm 4 mps 747 mmHg 25%
    16:00 +45°C° 0 mm 5 mps 747 mmHg 29%
    17:00 +45°C° 0 mm 5 mps 747 mmHg 32%
    18:00 +43°C° 0 mm 5 mps 747 mmHg 36%
    19:00 +42°C° 0 mm 5 mps 747 mmHg 36%
    20:00 +42°C° 0 mm 5 mps 748 mmHg 36%
    21:00 +42°C° 0 mm 5 mps 748 mmHg 36%
    22:00 +41°C° 0 mm 5 mps 748 mmHg 37%
    23:00 +41°C° 0 mm 4 mps 748 mmHg 38%

    23 August, Wednesday

    Time Temperature Precipitation Wind Pressure Humidity
    00:00 +40°C° 0 mm 4 mps 748 mmHg 39%
    01:00 +40°C° 0 mm 4 mps 748 mmHg 41%
    02:00 +38°C° 0 mm 4 mps 748 mmHg 43%
    03:00 +38°C° 0 mm 4 mps 748 mmHg 45%
    04:00 +38°C° 0 mm 4 mps 748 mmHg 46%
    05:00 +38°C° 0 mm 3 mps 749 mmHg 46%
    06:00 +38°C° 0 mm 3 mps 749 mmHg 47%
    07:00 +39°C° 0 mm 3 mps 749 mmHg 42%
    08:00 +40°C° 0 mm 3 mps 750 mmHg 37%
    09:00 +42°C° 0 mm 3 mps 750 mmHg 32%
    10:00 +42°C° 0 mm 2 mps 750 mmHg 29%
    11:00 +43°C° 0 mm 2 mps 750 mmHg 26%
    12:00 +44°C° 0 mm 1 mps 749 mmHg 22%
    13:00 +45°C° 0 mm 2 mps 749 mmHg 23%
    14:00 +46°C° 0 mm 3 mps 749 mmHg 23%
    15:00 +47°C° 0 mm 5 mps 749 mmHg 23%
    16:00 +46°C° 0 mm 5 mps 749 mmHg 27%
    17:00 +43°C° 0 mm 5 mps 749 mmHg 31%
    18:00 +42°C° 0 mm 5 mps 749 mmHg 34%
    19:00 +42°C° 0 mm 5 mps 750 mmHg 35%
    20:00 +41°C° 0 mm 4 mps 750 mmHg 36%
    21:00 +41°C° 0 mm 4 mps 750 mmHg 37%
    22:00 +40°C° 0 mm 3 mps 750 mmHg 36%
    23:00 +39°C° 0 mm 3 mps 750 mmHg 35%

    24 August, Thursday

    Time Temperature Precipitation Wind Pressure Humidity
    00:00 +39°C° 0 mm 3 mps 750 mmHg 34%
    01:00 +38°C° 0 mm 3 mps 750 mmHg 34%
    02:00 +38°C° 0 mm 3 mps 749 mmHg 33%
    03:00 +37°C° 0 mm 3 mps 749 mmHg 33%
    04:00 +37°C° 0 mm 3 mps 750 mmHg 37%
    05:00 +37°C° 0 mm 3 mps 750 mmHg 42%
    06:00 +37°C° 0 mm 2 mps 751 mmHg 46%
    07:00 +39°C° 0 mm 2 mps 751 mmHg 41%
    08:00 +40°C° 0 mm 1 mps 751 mmHg 36%
    09:00 +41°C° 0 mm 1 mps 751 mmHg 31%
    10:00 +42°C° 0 mm 1 mps 751 mmHg 28%
    11:00 +43°C° 0 mm 1 mps 751 mmHg 25%
    12:00 +44°C° 0 mm 1 mps 751 mmHg 22%
    13:00 +45°C° 0 mm 2 mps 750 mmHg 22%
    14:00 +45°C° 0 mm 4 mps 750 mmHg 22%
    15:00 +47°C° 0 mm 5 mps 750 mmHg 21%
    16:00 +44°C° 0 mm 4 mps 750 mmHg 25%
    17:00 +43°C° 0 mm 4 mps 750 mmHg 28%
    18:00 +42°C° 0 mm 4 mps 750 mmHg 32%
    19:00 +41°C° 0 mm 4 mps 750 mmHg 34%
    20:00 +40°C° 0 mm 3 mps 751 mmHg 35%
    21:00 +39°C° 0 mm 3 mps 751 mmHg 37%
    22:00 +39°C° 0 mm 3 mps 751 mmHg 38%
    23:00 +38°C° 0 mm 2 mps 751 mmHg 39%
    Show more